• In Netherlands
  • List of Countries
  • For 7 days
  • Water Temperature
  • Satellite Maps
  • Weather Map
  • Weather Widgets
  • user-avatar
    Login

    Hourly Weather Galata

    Today, 20 February, Monday

    Time Temperature Precipitation Wind Pressure Humidity
    00:00 +4°C° 1.2 mm 4 mps 758 mmHg 96%
    01:00 +3°C° 1.2 mm 3 mps 758 mmHg 96%
    02:00 +3°C° 0 mm 3 mps 758 mmHg 97%
    03:00 +1°C° 0.2 mm 4 mps 757 mmHg 96%
    04:00 +1°C° 0.2 mm 5 mps 757 mmHg 94%
    05:00 -1°C° 0.2 mm 6 mps 757 mmHg 93%
    06:00 -1°C° 0 mm 6 mps 757 mmHg 92%
    07:00 -1°C° 0 mm 6 mps 757 mmHg 91%
    08:00 -1°C° 0 mm 7 mps 757 mmHg 90%
    09:00 -1°C° 0.1 mm 7 mps 757 mmHg 88%
    10:00 0°C° 0.1 mm 7 mps 757 mmHg 87%
    11:00 0°C° 0.1 mm 7 mps 758 mmHg 86%
    12:00 +2°C° 0.1 mm 7 mps 758 mmHg 85%
    13:00 +1°C° 0.1 mm 8 mps 758 mmHg 84%
    14:00 +1°C° 0.1 mm 8 mps 758 mmHg 83%
    15:00 +2°C° 0 mm 7 mps 758 mmHg 84%
    16:00 +2°C° 0 mm 7 mps 757 mmHg 85%
    17:00 +2°C° 0 mm 6 mps 757 mmHg 87%
    18:00 +1°C° 0 mm 6 mps 758 mmHg 88%
    19:00 -1°C° 0 mm 6 mps 758 mmHg 89%
    20:00 -1°C° 0 mm 6 mps 758 mmHg 91%
    21:00 -1°C° 0 mm 6 mps 758 mmHg 90%
    22:00 -1°C° 0 mm 6 mps 758 mmHg 90%
    23:00 -2°C° 0 mm 6 mps 758 mmHg 90%

    Tomorrow, 21 February, Tuesday

    Time Temperature Precipitation Wind Pressure Humidity
    00:00 -2°C° 0 mm 6 mps 758 mmHg 90%
    01:00 -2°C° 0 mm 6 mps 758 mmHg 89%
    02:00 -2°C° 0 mm 6 mps 758 mmHg 89%
    03:00 -2°C° 0 mm 6 mps 757 mmHg 88%
    04:00 -2°C° 0 mm 6 mps 757 mmHg 87%
    05:00 -2°C° 0 mm 6 mps 757 mmHg 86%
    06:00 -1°C° 0 mm 5 mps 757 mmHg 84%
    07:00 -1°C° 0 mm 5 mps 757 mmHg 83%
    08:00 -1°C° 0 mm 5 mps 757 mmHg 81%
    09:00 +1°C° 0 mm 5 mps 757 mmHg 76%
    10:00 +3°C° 0 mm 6 mps 756 mmHg 71%
    11:00 +4°C° 0 mm 6 mps 756 mmHg 67%
    12:00 +5°C° 0 mm 6 mps 756 mmHg 65%
    13:00 +5°C° 0 mm 6 mps 755 mmHg 64%
    14:00 +7°C° 0 mm 6 mps 755 mmHg 62%
    15:00 +6°C° 0 mm 5 mps 755 mmHg 66%
    16:00 +6°C° 0 mm 5 mps 754 mmHg 70%
    17:00 +5°C° 0 mm 4 mps 754 mmHg 74%
    18:00 +4°C° 0 mm 4 mps 754 mmHg 76%
    19:00 +4°C° 0 mm 4 mps 754 mmHg 79%
    20:00 +3°C° 0 mm 4 mps 754 mmHg 81%
    21:00 +3°C° 0 mm 4 mps 754 mmHg 80%
    22:00 +3°C° 0 mm 4 mps 754 mmHg 79%
    23:00 +2°C° 0 mm 5 mps 753 mmHg 78%

    Day after tomorrow, 22 February, Wednesday

    Time Temperature Precipitation Wind Pressure Humidity
    00:00 +2°C° 0 mm 5 mps 753 mmHg 77%
    01:00 +2°C° 0 mm 5 mps 753 mmHg 76%
    02:00 +2°C° 0 mm 5 mps 753 mmHg 75%
    03:00 +2°C° 0 mm 6 mps 753 mmHg 78%
    04:00 +2°C° 0 mm 6 mps 753 mmHg 80%
    05:00 +2°C° 0 mm 6 mps 753 mmHg 83%
    06:00 +2°C° 0 mm 6 mps 753 mmHg 84%
    07:00 +2°C° 0 mm 6 mps 754 mmHg 86%
    08:00 +2°C° 0 mm 6 mps 754 mmHg 87%
    09:00 +4°C° 0 mm 6 mps 755 mmHg 83%
    10:00 +5°C° 0 mm 6 mps 755 mmHg 78%
    11:00 +8°C° 0 mm 6 mps 755 mmHg 73%
    12:00 +9°C° 0 mm 5 mps 755 mmHg 72%
    13:00 +10°C° 0 mm 5 mps 755 mmHg 71%
    14:00 +10°C° 0 mm 5 mps 755 mmHg 70%
    15:00 +11°C° 0 mm 4 mps 755 mmHg 74%
    16:00 +10°C° 0 mm 3 mps 755 mmHg 78%
    17:00 +10°C° 0 mm 3 mps 755 mmHg 82%
    18:00 +9°C° 0 mm 3 mps 755 mmHg 84%
    19:00 +8°C° 0 mm 3 mps 755 mmHg 87%
    20:00 +5°C° 0 mm 3 mps 756 mmHg 90%
    21:00 +5°C° 0 mm 3 mps 756 mmHg 89%
    22:00 +5°C° 0 mm 3 mps 756 mmHg 88%
    23:00 +5°C° 0 mm 3 mps 756 mmHg 87%

    23 February, Thursday

    Time Temperature Precipitation Wind Pressure Humidity
    00:00 +5°C° 0 mm 3 mps 755 mmHg 86%
    01:00 +5°C° 0 mm 3 mps 755 mmHg 86%
    02:00 +5°C° 0 mm 4 mps 755 mmHg 85%
    03:00 +5°C° 0 mm 4 mps 755 mmHg 84%
    04:00 +5°C° 0 mm 4 mps 754 mmHg 83%
    05:00 +5°C° 0 mm 4 mps 754 mmHg 81%
    06:00 +5°C° 0 mm 4 mps 754 mmHg 80%
    07:00 +6°C° 0 mm 4 mps 755 mmHg 78%
    08:00 +6°C° 0 mm 4 mps 755 mmHg 76%
    09:00 +8°C° 0 mm 5 mps 755 mmHg 70%
    10:00 +10°C° 0 mm 5 mps 755 mmHg 65%
    11:00 +13°C° 0 mm 6 mps 755 mmHg 59%
    12:00 +14°C° 0 mm 6 mps 755 mmHg 58%
    13:00 +14°C° 0 mm 6 mps 755 mmHg 56%
    14:00 +15°C° 0 mm 6 mps 755 mmHg 55%
    15:00 +14°C° 0 mm 5 mps 755 mmHg 60%
    16:00 +13°C° 0 mm 5 mps 755 mmHg 65%
    17:00 +12°C° 0 mm 4 mps 755 mmHg 69%
    18:00 +11°C° 0 mm 4 mps 755 mmHg 73%
    19:00 +10°C° 0 mm 4 mps 755 mmHg 77%
    20:00 +8°C° 0 mm 4 mps 755 mmHg 80%
    21:00 +8°C° 0 mm 4 mps 755 mmHg 82%
    22:00 +7°C° 0 mm 4 mps 755 mmHg 85%
    23:00 +7°C° 0 mm 4 mps 755 mmHg 87%

    24 February, Friday

    Time Temperature Precipitation Wind Pressure Humidity
    00:00 +7°C° 0 mm 4 mps 754 mmHg 89%
    01:00 +7°C° 0 mm 4 mps 754 mmHg 91%
    02:00 +6°C° 0 mm 5 mps 754 mmHg 93%
    03:00 +6°C° 0 mm 5 mps 753 mmHg 93%
    04:00 +6°C° 0 mm 5 mps 753 mmHg 93%
    05:00 +6°C° 0 mm 5 mps 753 mmHg 93%
    06:00 +6°C° 0 mm 5 mps 753 mmHg 92%
    07:00 +6°C° 0 mm 5 mps 753 mmHg 91%
    08:00 +6°C° 0 mm 5 mps 753 mmHg 89%
    09:00 +8°C° 0 mm 5 mps 753 mmHg 81%
    10:00 +10°C° 0 mm 5 mps 753 mmHg 72%
    11:00 +13°C° 0 mm 5 mps 753 mmHg 64%
    12:00 +14°C° 0 mm 5 mps 753 mmHg 60%
    13:00 +15°C° 0 mm 5 mps 753 mmHg 57%
    14:00 +16°C° 0 mm 5 mps 752 mmHg 54%
    15:00 +15°C° 0 mm 5 mps 752 mmHg 59%
    16:00 +14°C° 0 mm 5 mps 752 mmHg 64%
    17:00 +13°C° 0 mm 4 mps 752 mmHg 69%
    18:00 +12°C° 0 mm 5 mps 752 mmHg 72%
    19:00 +10°C° 0 mm 5 mps 752 mmHg 75%
    20:00 +9°C° 0 mm 5 mps 752 mmHg 78%
    21:00 +9°C° 0 mm 5 mps 752 mmHg 79%
    22:00 +9°C° 0 mm 6 mps 752 mmHg 80%
    23:00 +8°C° 0 mm 6 mps 752 mmHg 82%

    25 February, Saturday

    Time Temperature Precipitation Wind Pressure Humidity
    00:00 +8°C° 0 mm 6 mps 751 mmHg 83%
    01:00 +8°C° 0 mm 6 mps 751 mmHg 84%
    02:00 +8°C° 0 mm 6 mps 750 mmHg 85%
    03:00 +8°C° 0.1 mm 6 mps 750 mmHg 84%
    04:00 +8°C° 0.1 mm 6 mps 750 mmHg 83%
    05:00 +9°C° 0.1 mm 7 mps 750 mmHg 83%
    06:00 +9°C° 0.2 mm 6 mps 750 mmHg 84%
    07:00 +9°C° 0.2 mm 6 mps 750 mmHg 85%
    08:00 +9°C° 0.2 mm 6 mps 751 mmHg 87%
    09:00 +10°C° 0.3 mm 6 mps 751 mmHg 83%
    10:00 +10°C° 0.3 mm 6 mps 752 mmHg 80%
    11:00 +11°C° 0.3 mm 7 mps 752 mmHg 77%
    12:00 +12°C° 0 mm 7 mps 752 mmHg 68%
    13:00 +13°C° 0 mm 8 mps 753 mmHg 59%
    14:00 +15°C° 0 mm 8 mps 753 mmHg 50%
    15:00 +14°C° 0 mm 7 mps 753 mmHg 54%
    16:00 +13°C° 0 mm 6 mps 753 mmHg 57%
    17:00 +12°C° 0 mm 5 mps 754 mmHg 61%
    18:00 +11°C° 0 mm 4 mps 754 mmHg 64%
    19:00 +10°C° 0 mm 4 mps 754 mmHg 67%
    20:00 +9°C° 0 mm 3 mps 755 mmHg 70%
    21:00 +9°C° 0 mm 3 mps 755 mmHg 71%
    22:00 +9°C° 0 mm 3 mps 755 mmHg 71%
    23:00 +9°C° 0 mm 3 mps 755 mmHg 72%
    Show more